EHI
0 0 0 0 0 0 0 0 0 0 0 0 0 0 0 0 0 0 0 0 0 0 0 0 0 0 0 0 0 0 0 0 0 0 0 0 0 0 0 0 0 0 0 0
0 0 0 0 0 0 0 0 0 0 0 0 0 0 0 0 0 0 0 0 0 0 0 0 0 0 0 0 0 0 0 0 0 0 0 0 0 0 0 0 0 0 0 0
0 0 0 0 0 0 0 0 0 0 0 0 0 0 0 0 0 0 0 0 0 0 0 0 0 0 0 0 0 0 0 0 0 0 0 0 0 0 0 0 0 0 0 0
0 0 0 0 0 0 0 0 0 0 0 0 0 0 0 0 0 0 0 0 0 0 0 0 0 0 0 0 0 0 0 0 0 0 0 0 0 0 0 0 0 0 0 0
0 0 0 0 0 0 0 0 0 0 0 0 0 0 0 0 0 0 0 0 0 0 0 0 0 0 0 0 0 0 0 0 0 0 0 0 0 0 0 0 0 0 0 0
0 0 0 0 0 0 0 0 0 0 0 0 0 0 0 0 0 0 0 0 0 0 0 0 0 0 0 0 0 0 0 0 0 0 0 0 0 0 0 0 0 0 0 0
0 0 0 0 0 0 0 0 0 0 0 0 0 0 0 0 0 0 0 0 0 0 0 0 0 0 0 0 0 0 0 0 0 0 0 0 0 0 0 0 0 0 0 0
0 0 0 0 0 0 0 0 0 0 0 0 0 0 0 0 0 0 0 0 0 0 0 0 0 0 0 0 0 0 0 0 0 0 0 0 0 0 0 0 0 0 0 0
0 0 0 0 0 0 0 0 0 0 0 0 0 0 0 0 0 0 0 0 0 0 0 0 0 0 0 0 0 0 0 0 0 0 0 0 0 0 0 0 0 0 0 0
0 0 0 0 0 0 0 0 0 0 0 0 0 0 0 0 0 0 0 0 0 0 0 0 0 0 0 0 0 0 0 0 0 0 0 0 0 0 0 0 0 0 0 0
0 0 0 0 0 0 0 0 0 0 0 0 0 0 0 0 0 0 0 0 0 0 0 0 0 0 0 0 0 0 0 0 0 0 0 0 0 0 0 0 0 0 0 0
0 0 0 0 0 0 0 0 0 0 0 0 0 0 0 0 0 0 0 0 0 0 0 0 0 0 0 0 0 0 0 0 0 0 0 0 0 0 0 0 0 0 0 0
0 0 0 0 0 0 0 0 0 0 0 0 0 0 0 0 0 0 0 0 0 0 0 0 0 0 0 0 0 0 0 0 0 0 0 0 0 0 0 0 0 0 0 0
0 0 0 0 0 0 0 0 0 0 0 0 0 0 0 0 0 0 0 0 0 0 0 0 0 0 0 0 0 0 0 0 0 0 0 0 0 0 0 0 0 0 0 0
0 0 0 0 0 0 0 0 0 0 0 0 0 0 0 0 0 0 0 0 0 0 0 0 0 0 0 0 0 0 0 0 0 0 0 0 0 0 0 0 0 0 0 0
0 0 0 0 0 0 0 0 0 0 0 0 0 0 0 0 0 0 0 0 0 0 0 0 0 0 0 0 0 0 0 0 0 0 0 0 0 0 0 0 0 0 0 0
0 0 0 0 0 0 0 0 0 0 0 0 0 0 0 0 0 0 0 0 0 0 0 0 0 0 0 0 0 0 0 0 0 0 0 0 0 0 0 0 0 0 0 0
0 0 0 0 0 0 0 0 0 0 0 0 0 0 0 0 0 0 0 0 0 0 0 0 0 0 0 0 0 0 0 0 0 0 0 0 0 0 0 0 0 0 0 0
0 0 0 0 0 0 0 0 0 0 0 0 0 0 0 0 0 0 0 0 0 0 0 0 0 0 0 0 0 0 0 0 0 0 0 0 0 0 0 0 0 0 0 0
0 0 0 0 0 0 0 0 0 0 0 0 0 0 0 0 0 0 0 0 0 0 0 0 0 0 0 0 0 0 0 0 0 0 0 0 0 0 0 0 0 0 0 0
0 0 0 0 0 0 0 0 0 0 0 0 0 0 0 0 0 0 0 0 0 0 0 0 0 0 0 0 0 0 0 0 0 0 0 0 0 0 0 0 0 0 0 0
0 0 0 0 0 0 0 0 0 0 0 0 0 0 0 0 0 0 0 0 0 0 0 0 0 0 0 0 0 0 0 0 0 0 0 0 0 0 0 0 0 0 0 0
0 0 0 0 0 0 0 0 0 0 0 0 0 0 0 0 0 0 0 0 0 0 0 0 0 0 0 0 0 0 0 0 0 0 0 0 0 0 0 0 0 0 0 0
0 0 0 0 0 0 0 0 0 0 0 0 0 0 0 0 0 0 0 0 0 0 0 0 0 0 0 0 0 0 0 0 0 0 0 0 0 0 0 0 0 0 0 0
0 0 0 0 0 0 0 0 0 0 0 0 0 0 0 0 0 0 0 0 0 0 0 0 0 0 0 0 0 0 0 0 0 0 0 0 0 0 0 0 0 0 0 0
0 0 0 0 0 0 0 0 0 0 0 0 0 0 0 0 0 0 0 0 0 0 0 0 0 0 0 0 0 0 0 0 0 0 0 0 0 0 0 0 0 0 0 0
0 0 0 0 0 0 0 0 0 0 0 0 0 0 0 0 0 0 0 0 0 0 0 0 0 0 0 0 0 0 0 0 0 0 0 0 0 0 0 0 0 0 0 0
Wind_Speed
3 3 3 3 4 4 5 6 6 5 5 5 3 2 2 2 2 2 2 3 3 3 4 4 4 4 4 5 6 7 7 7 7 6 6 6 6 5 5 5 5 4 4 4
2 2 2 3 5 5 5 5 5 5 6 4 3 1 1 2 2 2 3 4 4 4 4 4 5 5 5 5 6 7 8 8 7 7 7 7 6 6 6 5 4 4 4 4
2 2 3 4 5 6 4 4 5 6 5 2 2 2 1 1 1 2 3 4 5 4 5 5 5 5 7 7 6 7 8 7 7 8 8 7 7 6 6 5 4 4 5 4
1 1 4 6 2 2 3 1 1 1 2 2 2 1 1 1 2 3 4 4 5 5 5 5 4 4 5 5 6 7 7 7 8 8 8 7 7 7 6 4 4 4 4 5
2 1 5 5 2 1 2 1 2 1 2 4 3 1 2 3 3 3 4 4 4 5 5 4 4 3 3 4 6 7 8 8 9 9 9 8 8 7 5 5 4 4 4 5
3 2 5 4 2 2 2 1 2 2 3 4 3 1 3 5 5 5 4 4 4 4 4 4 3 2 3 4 6 8 9 8 8 8 9 9 8 6 4 4 5 5 4 5
3 3 6 3 3 1 3 3 1 1 2 3 1 3 5 6 5 5 5 4 4 4 4 4 3 1 2 3 6 6 4 5 6 7 8 7 7 5 5 5 5 5 5 4
4 5 7 2 1 2 2 1 1 1 2 2 4 5 5 5 6 6 6 5 4 4 4 4 3 1 1 3 3 3 4 6 6 7 6 6 7 6 6 6 6 5 5 4
6 5 1 1 2 1 1 0 2 2 3 3 4 5 5 5 5 5 5 5 4 4 4 4 3 1 2 3 1 3 4 5 5 6 5 6 7 7 6 6 5 5 5 5
2 2 1 1 2 1 1 1 2 3 4 4 5 5 6 5 5 5 5 5 4 4 4 4 3 2 2 2 1 2 4 4 4 5 5 5 5 6 6 6 6 6 6 6
2 2 1 1 1 0 2 2 3 4 4 5 5 6 6 5 5 5 5 5 4 4 5 5 4 3 3 2 1 2 3 4 4 5 5 5 6 6 7 7 8 8 7 6
6 5 4 4 2 1 2 3 4 5 5 5 5 6 6 6 5 5 5 5 5 5 5 5 4 3 3 2 1 2 3 3 3 4 4 4 4 4 9 10 12 14 12 9
4 3 3 2 2 1 2 3 4 5 6 6 6 6 6 6 5 5 5 5 5 5 5 4 3 3 3 2 2 3 3 3 3 3 4 4 4 5 4 7 12 14 15 16
4 3 2 2 2 2 2 4 4 4 5 5 5 5 5 6 5 5 5 5 5 5 4 3 2 3 3 2 2 3 3 4 4 4 4 4 5 5 4 4 4 5 9 15
4 4 3 2 2 2 2 3 4 5 5 6 5 5 5 6 6 6 5 5 4 4 4 3 3 3 3 3 2 3 2 2 3 3 3 4 4 4 5 5 5 4 3 6
4 2 2 2 3 3 3 3 4 6 6 6 6 6 6 6 6 6 5 4 4 4 4 3 3 3 3 2 2 2 2 4 3 3 3 4 4 4 5 5 5 5 5 5
5 4 4 4 4 4 4 4 5 6 6 6 7 7 6 6 6 6 5 4 4 4 3 3 3 3 3 2 2 2 2 3 4 3 3 3 4 4 4 5 5 5 5 6
6 5 4 4 4 5 5 5 5 5 6 6 6 6 6 6 6 6 6 5 4 4 3 3 3 3 3 3 2 2 2 2 2 3 3 3 3 3 4 4 5 5 4 4
4 5 4 5 5 4 5 5 5 5 6 5 5 6 6 6 6 6 5 5 5 5 4 3 4 3 3 3 3 2 2 2 2 3 3 4 4 3 3 4 4 4 4 3
4 4 4 5 5 5 5 5 5 5 5 5 5 6 6 6 5 5 5 4 4 4 4 4 3 3 3 3 4 2 2 2 3 2 2 2 3 3 3 3 3 3 3 3
4 4 4 5 5 6 6 6 5 6 6 5 5 6 7 6 5 4 4 5 4 4 4 5 3 3 3 3 4 2 2 2 2 2 2 2 2 2 2 2 2 3 3 3
4 4 5 5 5 6 5 5 5 6 6 6 6 6 6 7 6 5 5 5 5 5 3 3 3 4 5 4 2 2 2 2 2 2 2 2 2 2 2 2 3 3 3 3
4 4 4 5 5 6 6 5 5 6 6 7 7 7 7 6 4 4 5 4 3 5 4 3 5 7 7 3 2 2 2 2 2 2 2 2 2 2 3 3 3 2 2 2
3 3 4 4 3 4 6 6 6 5 6 6 6 7 6 5 5 5 5 7 8 7 4 5 8 8 6 2 2 2 3 3 3 3 3 2 2 2 3 3 3 2 3 3
3 3 3 3 4 5 6 6 6 6 5 5 6 6 5 4 5 5 4 5 8 8 4 6 8 8 4 2 3 3 3 3 3 3 2 2 3 3 3 3 3 3 3 3
2 3 3 4 4 4 4 4 4 4 4 5 5 4 4 4 5 5 4 5 6 7 5 4 4 5 3 3 3 4 3 3 4 3 3 3 3 3 3 3 4 3 3 3
2 2 3 3 3 3 3 3 4 5 4 5 6 5 4 4 4 4 5 4 4 4 4 4 3 3 3 3 4 3 3 3 3 3 3 3 3 3 4 4 4 3 3 4
Wind_Direction
241 243 196 216 228 206 195 197 202 229 237 264 274 275 288 304 319 329 316 308 289 270 254 241 231 217 201 192 180 168 164 169 174 162 154 151 148 148 146 148 153 153 146 146
313 300 229 251 245 224 221 215 223 242 259 259 266 313 339 332 331 330 319 308 294 279 265 249 234 222 207 200 189 174 176 180 168 159 158 159 157 156 153 154 154 152 157 161
281 333 25 278 245 214 207 209 204 225 250 297 310 321 306 316 347 332 316 312 305 294 275 257 242 223 212 206 188 180 183 178 171 167 167 167 163 161 165 166 162 165 171 171
152 60 232 248 286 203 163 54 43 81 337 326 283 256 55 38 342 318 314 312 314 304 292 279 261 241 220 196 184 186 185 181 176 171 171 166 166 172 172 165 171 177 181 179
142 209 275 294 331 54 144 64 6 25 352 347 334 76 351 359 345 308 300 297 292 291 283 280 275 254 208 194 187 188 192 189 183 176 172 172 179 179 173 169 176 181 181 180
151 194 237 255 302 317 117 203 356 33 13 355 20 6 297 328 331 324 316 307 307 311 314 310 297 270 203 200 194 203 202 192 180 175 176 182 183 175 168 170 180 179 186 190
177 224 260 268 295 12 171 231 358 22 2 354 334 258 286 310 320 325 320 315 320 330 333 320 311 286 224 215 218 217 188 170 172 177 180 177 171 166 166 168 173 183 194 201
171 206 247 301 67 142 203 324 351 338 329 312 294 296 303 309 316 325 325 323 327 331 328 329 336 351 259 250 243 188 169 173 178 178 175 169 167 169 170 173 182 192 202 212
190 208 203 100 128 124 115 13 324 316 310 307 303 302 306 305 307 314 318 319 320 320 319 326 337 343 269 274 247 185 174 180 179 173 172 166 170 174 177 185 194 200 206 217
205 232 203 156 130 87 48 317 307 307 306 304 299 299 302 301 302 305 307 312 315 314 312 312 316 315 274 267 229 180 182 180 170 170 173 174 178 181 189 195 202 205 210 218
213 226 139 191 166 320 337 336 322 313 306 299 295 296 296 296 298 297 299 303 305 302 298 296 303 301 293 271 202 190 188 182 178 181 182 186 193 199 202 209 207 206 211 208
207 201 187 219 224 254 312 310 308 308 307 305 297 294 297 293 293 295 295 298 301 298 295 296 298 298 300 290 228 203 200 194 191 191 191 193 201 218 223 223 228 229 225 217
179 169 183 211 222 251 277 293 301 300 296 299 300 296 295 293 293 296 296 298 297 295 295 298 300 304 313 298 251 226 221 211 202 199 198 201 204 213 230 234 235 237 237 236
163 142 169 199 231 262 281 295 298 299 296 295 296 299 298 296 295 296 296 295 294 292 293 294 297 305 319 310 274 249 238 225 214 209 206 208 211 215 218 223 229 236 237 239
179 174 193 219 248 274 295 305 308 306 307 307 305 304 304 300 298 298 299 301 300 296 294 295 293 303 318 307 285 269 252 236 223 213 211 214 213 214 219 223 231 236 232 240
175 175 194 223 254 275 289 294 296 300 305 308 308 307 304 299 296 298 303 305 297 291 295 295 291 302 308 297 285 276 264 258 245 225 217 217 217 220 223 226 229 232 234 233
166 204 220 239 255 270 271 271 277 286 293 295 298 302 301 301 300 301 301 301 290 283 284 281 283 296 299 291 278 267 267 270 261 243 228 226 225 225 227 229 232 235 238 233
193 201 205 219 243 262 272 273 276 282 283 287 296 300 299 297 296 296 296 298 295 289 281 275 281 288 296 299 286 276 269 267 262 254 246 239 237 231 230 232 236 242 247 247
194 205 219 229 235 246 259 266 270 273 278 282 285 286 286 286 288 291 295 293 289 289 286 282 291 290 289 294 299 278 273 272 271 266 258 262 258 244 239 240 242 243 243 238
202 216 230 243 247 244 253 260 266 271 273 274 277 282 285 287 287 287 285 279 269 263 275 283 282 276 280 285 298 283 280 275 272 274 268 260 261 258 251 250 249 249 246 245
219 233 245 252 258 257 255 259 263 269 274 271 269 273 279 284 286 283 279 282 277 262 269 282 274 269 273 279 287 274 275 278 277 275 276 272 269 269 265 261 263 262 260 258
223 235 249 256 260 268 267 262 259 265 271 271 268 270 275 279 280 275 259 257 271 278 273 268 265 269 276 283 266 264 268 271 273 274 275 278 279 279 276 272 268 268 265 262
232 241 254 261 262 269 277 272 264 263 266 266 266 267 266 266 264 266 278 266 258 273 272 261 269 276 281 276 260 260 264 266 266 268 269 270 272 274 278 279 277 276 276 274
244 256 263 269 271 275 279 279 275 268 265 267 264 261 261 268 268 247 249 275 278 276 265 266 274 276 276 255 252 253 253 256 258 260 262 265 266 269 272 275 278 279 277 277
252 261 268 277 275 270 273 283 287 282 277 274 272 267 256 245 254 268 264 263 271 276 268 268 273 274 264 242 244 248 249 250 252 253 250 258 264 268 270 272 273 276 276 274
254 263 264 260 260 266 275 280 280 282 283 286 285 275 265 257 256 263 265 262 262 271 267 258 259 262 248 243 245 248 250 263 274 269 258 260 262 265 267 269 271 270 271 274
276 277 281 286 279 272 274 275 278 284 284 284 287 285 278 275 271 270 268 266 264 261 257 253 247 243 243 243 245 245 245 247 251 254 254 252 254 257 261 264 266 267 267 269